Regional Weather Roundup
Issued by NWS

Home | Current Version | Previous Version | Text Only | Print | Product List | Glossary On
Versions: 1 2 3 4 5 6 7 8 9 10 11 12 13 14 15 16 17 18 19 20 21 22 23 24 25 26 27 28 29 30 31 32 33 34 35 36 37 38 39 40 41 42 43 44
000
ASUS45 KSLC 261910
RWRUT

UTAH REGIONAL WEATHER ROUNDUP
NATIONAL WEATHER SERVICE SALT LAKE CITY UT
1200 PM MST FRI DEC 26 2014

UTZ001>011-023>025-262000-

NORTHERN UTAH

CITY           SKY/WX    TMP DP  RH WIND       PRES   REMARKS
BRIGHAM CITY   CLOUDY    26  13  59 NW8       30.04F WCI  17
HILL AFB         N/A     25  17  70 NW10      30.00S WCI  15
LOGAN            N/A     18  12  77 W5        30.04S WCI  11
OGDEN          CLOUDY    26  16  65 N9        30.00F WCI  17
PROVO AIRPORT  PTSUNNY   27  19  74 NW16      29.99S WCI  14
SALT LAKE CITY PTSUNNY   27  19  72 N10       30.02S WCI  17
VERNAL         CLOUDY    27  11  51 VRB3      29.89F
WENDOVER       CLOUDY    30  14  51 NW17      30.08S WCI  18
HEBER CITY       N/A     27  14  59 CALM      29.93F
WEST JORDAN    CLOUDY    27  21  80 NW13      30.01S WCI  16

$$

UTZ012>022-026-027-262000-

SOUTHERN/CENTRAL UTAH

CITY           SKY/WX    TMP DP  RH WIND       PRES   REMARKS
BLANDING         N/A     30  17  58 CALM      29.88S
BRYCE CANYON   LGT SNOW  19  10  68 W16       29.85S WCI   4
CEDAR CITY     CLOUDY    24  17  74 NE10      29.99R WCI  14
DELTA          CLOUDY    26  17  70 N14       30.01F WCI  14
MILFORD        LGT SNOW  25  19  78 NE13      30.01F WCI  14
MOAB/CYNLANDS  CLOUDY    28  23  81 W3        29.87S
PRICE          CLOUDY    28   9  44 NW10      29.84F WCI  19
ST GEORGE        N/A     39  18  41 CALM      30.04F
KANAB            N/A     32  21  64 S7        29.97F WCI  26

$$

REGIONAL REPORTS     COLORADO/ARIZONA

CITY           SKY/WX    TMP DP  RH WIND       PRES   REMARKS
CRAIG, CO      CLOUDY    17  11  77 W10       29.83F WCI   5
GRAND JUNCTION LGT SNOW  26  24  92 NW12      29.84S FOG     WCI  16
RIFLE          MIX PCPN  26  16  65 W8        29.81F WCI  18
MONTROSE       CLOUDY    26  21  81 N6        29.81F WCI  19
CORTEZ         CLOUDY    29  21  72 SW9       29.79F WCI  20
PAGE, AZ         N/A     40   7  25 NW9G18    29.90S WCI  34
GRAND CANYON   PTSUNNY   25  13  60 VRB7G16   29.89F WCI  17
KINGMAN          N/A     41  14  33 N14       30.03F
FLAGSTAFF        N/A     26  10  50 NW8G18    29.87S WCI  18

$$

REGIONAL REPORTS    NEVADA/IDAHO/WYOMING

CITY           SKY/WX    TMP DP  RH WIND       PRES   REMARKS
LAS VEGAS, NV    N/A     47   8  20 NW17G29   30.04F
ELY            CLOUDY    20  10  65 N3        30.05R
ELKO           CLOUDY    28  15  58 W7        30.10F WCI  21
POCATELLO, ID    N/A     21  16  81 W6        30.09S WCI  13
BURLEY         MIX PCPN  25  17  72 W12       30.10R WCI  14
EVANSTON, WY   LGT SNOW  17  12  80 NW7       29.88S VSB 3/4 WCI   8
ROCK SPRINGS   CLOUDY    17   8  67 NE14      29.88F WCI   3
KEMMERER       PTSUNNY   18  10  73 CALM      29.88

$$



USA.gov is the U.S. government's official web portal to all federal, state and local government web resources and services.